| time (UTC) | temp F | wind direction | speed MPH | gust MPH | rain 1hr in | rain 24hr in | rain mn in | humidity % | barometer mb |
| 20260506011533 | 61 | 188 | 2.0 | 5.0 | 0.00 | 0.01 | 0.00 | 59 | 1006.4 |
| 20260506010030 | 61 | 167 | 3.0 | 6.0 | 0.00 | 0.01 | 0.00 | 57 | 1006.3 |
| 20260506004527 | 61 | 180 | 3.0 | 6.0 | 0.00 | 0.01 | 0.00 | 57 | 1006.3 |
| 20260506003027 | 62 | 169 | 3.0 | 7.0 | 0.00 | 0.01 | 0.00 | 55 | 1006.3 |
| 20260506001527 | 62 | 179 | 3.0 | 7.0 | 0.00 | 0.01 | 0.00 | 55 | 1006.2 |
| 20260506000042 | 62 | 173 | 4.0 | 7.0 | 0.00 | 0.01 | 0.00 | 54 | 1006.0 |
| 20260505234525 | 61 | 174 | 3.0 | 6.0 | 0.00 | 0.01 | 0.00 | 53 | 1006.0 |
| 20260505233024 | 62 | 174 | 2.0 | 7.0 | 0.00 | 0.01 | 0.00 | 52 | 1006.2 |
| 20260505231529 | 62 | 174 | 2.0 | 6.0 | 0.00 | 0.01 | 0.00 | 51 | 1006.2 |
| 20260505230039 | 62 | 179 | 2.0 | 8.0 | 0.00 | 0.01 | 0.00 | 50 | 1006.2 |
| 20260505224524 | 62 | 186 | 0.0 | 4.0 | 0.00 | 0.01 | 0.00 | 51 | 1006.3 |
| 20260505223022 | 62 | 177 | 3.0 | 7.0 | 0.00 | 0.01 | 0.00 | 51 | 1006.3 |
| 20260505221522 | 63 | 184 | 1.0 | 9.0 | 0.00 | 0.01 | 0.00 | 50 | 1006.3 |
| 20260505220021 | 63 | 174 | 1.0 | 4.0 | 0.00 | 0.01 | 0.00 | 51 | 1006.4 |
| 20260505214521 | 62 | 183 | 3.0 | 5.0 | 0.00 | 0.01 | 0.00 | 52 | 1006.4 |
| 20260505213026 | 63 | 178 | 3.0 | 7.0 | 0.00 | 0.01 | 0.00 | 52 | 1006.5 |
| 20260505211528 | 63 | 207 | 3.0 | 7.0 | 0.00 | 0.01 | 0.00 | 54 | 1006.5 |
| 20260505210019 | 63 | 175 | 3.0 | 7.0 | 0.00 | 0.01 | 0.00 | 54 | 1006.4 |
| 20260505204517 | 64 | 192 | 2.0 | 5.0 | 0.00 | 0.01 | 0.00 | 51 | 1006.4 |
| 20260505203017 | 63 | 185 | 1.0 | 5.0 | 0.00 | 0.01 | 0.00 | 53 | 1006.4 |
| 20260505201513 | 62 | 192 | 0.0 | 2.0 | 0.00 | 0.01 | 0.00 | 54 | 1006.5 |
| 20260505200013 | 62 | 210 | 1.0 | 4.0 | 0.00 | 0.01 | 0.00 | 54 | 1006.6 |
| 20260505194512 | 62 | 101 | 1.0 | 4.0 | 0.00 | 0.01 | 0.00 | 56 | 1006.7 |
| 20260505193013 | 62 | 116 | 0.0 | 3.0 | 0.00 | 0.01 | 0.00 | 56 | 1006.9 |
| 20260505191513 | 63 | 167 | 0.0 | 5.0 | 0.00 | 0.01 | 0.00 | 57 | 1007.0 |
| 20260505190008 | 62 | 177 | 0.0 | 3.0 | 0.00 | 0.01 | 0.00 | 58 | 1007.0 |
| 20260505184507 | 62 | 177 | 1.0 | 6.0 | 0.00 | 0.01 | 0.00 | 59 | 1007.0 |
| 20260505183003 | 61 | 154 | 0.0 | 4.0 | 0.00 | 0.01 | 0.00 | 62 | 1007.0 |
| 20260505181642 | 60 | 186 | 0.0 | 3.0 | 0.00 | 0.01 | 0.00 | 63 | 1007.0 |
| 20260505180105 | 58 | 186 | 0.0 | 3.0 | 0.00 | 0.01 | 0.00 | 66 | 1007.1 |
| 20260505174554 | 58 | 188 | 1.0 | 4.0 | 0.00 | 0.01 | 0.00 | 65 | 1007.0 |
| 20260505173051 | 58 | 201 | 2.0 | 4.0 | 0.00 | 0.01 | 0.00 | 67 | 1006.8 |
| 20260505171555 | 58 | 140 | 1.0 | 3.0 | 0.00 | 0.01 | 0.00 | 70 | 1006.6 |
| 20260505170043 | 57 | 126 | 0.0 | 2.0 | 0.00 | 0.01 | 0.00 | 71 | 1006.6 |
| 20260505164540 | 56 | 93 | 0.0 | 3.0 | 0.00 | 0.01 | 0.00 | 74 | 1006.6 |
| 20260505163035 | 55 | 93 | 0.0 | 2.0 | 0.00 | 0.01 | 0.00 | 77 | 1006.5 |
| 20260505161531 | 54 | 93 | 0.0 | 2.0 | 0.00 | 0.01 | 0.00 | 76 | 1006.4 |
| 20260505153035 | 53 | 43 | 0.0 | 1.0 | 0.00 | 0.01 | 0.00 | 78 | 1006.2 |
| 20260505151525 | 53 | 43 | 0.0 | 2.0 | 0.00 | 0.01 | 0.00 | 78 | 1006.0 |
| 20260505124507 | 48 | 24 | 0.0 | 1.0 | 0.00 | 0.01 | 0.00 | 85 | 1005.6 |
| 20260505123003 | 48 | 24 | 0.0 | 2.0 | 0.00 | 0.01 | 0.00 | 85 | 1005.5 |
| 20260505121502 | 48 | 24 | 0.0 | 2.0 | 0.00 | 0.01 | 0.00 | 86 | 1005.4 |
| 20260505120001 | 47 | 22 | 0.0 | 2.0 | 0.00 | 0.01 | 0.00 | 87 | 1005.4 |
| 20260505114600 | 47 | 22 | 0.0 | 2.0 | 0.00 | 0.01 | 0.00 | 87 | 1005.5 |
| 20260505113058 | 48 | 22 | 0.0 | 2.0 | 0.00 | 0.01 | 0.00 | 86 | 1005.5 |
| 20260505111556 | 48 | 22 | 0.0 | 0.0 | 0.00 | 0.01 | 0.00 | 86 | 1005.6 |
| 20260505110110 | 49 | 22 | 0.0 | 0.0 | 0.00 | 0.01 | 0.00 | 85 | 1005.6 |
| 20260505101546 | 51 | 22 | 0.0 | 0.0 | 0.00 | 0.01 | 0.00 | 83 | 1005.6 |
| 20260505100045 | 52 | 19 | 0.0 | 4.0 | 0.00 | 0.01 | 0.00 | 82 | 1005.6 |
| 20260505094543 | 51 | 112 | 1.0 | 4.0 | 0.00 | 0.01 | 0.00 | 85 | 1005.7 |
| 20260505093040 | 52 | 174 | 0.0 | 2.0 | 0.00 | 0.01 | 0.00 | 86 | 1005.8 |
| 20260505091544 | 52 | 174 | 0.0 | 0.0 | 0.00 | 0.01 | 0.00 | 85 | 1006.1 |
| 20260505090037 | 52 | 174 | 0.0 | 0.0 | 0.00 | 0.01 | 0.00 | 86 | 1006.2 |
| 20260505084537 | 52 | 174 | 0.0 | 2.0 | 0.00 | 0.01 | 0.00 | 85 | 1006.4 |
| 20260505083035 | 53 | 174 | 0.0 | 2.0 | 0.00 | 0.01 | 0.00 | 84 | 1006.5 |
| 20260505081531 | 53 | 174 | 0.0 | 1.0 | 0.00 | 0.01 | 0.00 | 84 | 1006.7 |
| 20260505080033 | 53 | 174 | 0.0 | 1.0 | 0.00 | 0.01 | 0.00 | 83 | 1006.8 |
| 20260505074530 | 54 | 174 | 0.0 | 0.0 | 0.00 | 0.01 | 0.00 | 81 | 1006.8 |
| 20260505073026 | 54 | 174 | 0.0 | 1.0 | 0.00 | 0.01 | 0.00 | 81 | 1006.8 |
| 20260505071527 | 53 | 174 | 0.0 | 2.0 | 0.00 | 0.01 | 0.00 | 80 | 1006.8 |
| 20260505070023 | 53 | 174 | 0.0 | 0.0 | 0.00 | 0.01 | 0.00 | 84 | 1006.9 |
| 20260505064531 | 53 | 174 | 0.0 | 0.0 | 0.00 | 0.01 | 0.01 | 84 | 1006.9 |
| 20260505063021 | 53 | 174 | 0.0 | 0.0 | 0.00 | 0.01 | 0.01 | 84 | 1006.9 |
| 20260505061522 | 53 | 174 | 0.0 | 2.0 | 0.00 | 0.01 | 0.01 | 84 | 1006.9 |
| 20260505060023 | 53 | 174 | 0.0 | 1.0 | 0.00 | 0.01 | 0.01 | 83 | 1006.9 |
| 20260505054540 | 53 | 174 | 0.0 | 2.0 | 0.00 | 0.01 | 0.01 | 83 | 1006.9 |
| 20260505053021 | 53 | 174 | 0.0 | 2.0 | 0.01 | 0.01 | 0.01 | 83 | 1006.9 |
| 20260505051519 | 54 | 174 | 0.0 | 2.0 | 0.01 | 0.01 | 0.01 | 82 | 1007.0 |
| 20260505041517 | 56 | 174 | 0.0 | 1.0 | 0.00 | 0.00 | 0.00 | 75 | 1007.1 |
| 20260505040017 | 56 | 174 | 1.0 | 3.0 | 0.00 | 0.00 | 0.00 | 73 | 1007.0 |
| 20260505034525 | 56 | 173 | 1.0 | 4.0 | 0.00 | 0.00 | 0.00 | 72 | 1006.9 |
| 20260505033015 | 57 | 173 | 1.0 | 8.0 | 0.00 | 0.00 | 0.00 | 70 | 1006.8 |
| 20260505031515 | 57 | 190 | 1.0 | 4.0 | 0.00 | 0.00 | 0.00 | 69 | 1006.6 |
| 20260505030033 | 58 | 238 | 2.0 | 6.0 | 0.00 | 0.00 | 0.00 | 67 | 1006.4 |
| 20260505024517 | 58 | 227 | 1.0 | 7.0 | 0.00 | 0.00 | 0.00 | 65 | 1006.4 |
| 20260505023013 | 59 | 277 | 2.0 | 6.0 | 0.00 | 0.00 | 0.00 | 64 | 1006.2 |
| 20260505021512 | 59 | 196 | 2.0 | 8.0 | 0.00 | 0.00 | 0.00 | 65 | 1006.1 |
| 20260505020012 | 59 | 182 | 3.0 | 7.0 | 0.00 | 0.00 | 0.00 | 65 | 1006.1 |
| 20260505014518 | 60 | 196 | 2.0 | 8.0 | 0.00 | 0.00 | 0.00 | 64 | 1006.2 |
| 20260505013017 | 60 | 211 | 4.0 | 10.0 | 0.00 | 0.00 | 0.00 | 63 | 1006.2 |